Flag for U.S.A. Weather past 2 weeks in Chico, California, U.S.A.

Now
71 °F

Clear.


Feels Like: 76 °F
Forecast: 69 / 102 °F
Wind: 5 mph from North

Location: Oroville Municipal Airport

Current Time: Jul 28, 2015 at 6:41:12 AM

Latest Report: Jul 28, 2015 at 5:53 AM


Visibility: 10 mi

Pressure: 29.86 "Hg

Humidity: 30%

Dew point: 38 °F

Location of ChicoLocation

Historic Weather in Chico — Graph

°F

Chico temperature yesterday

Maximum temperature yesterday: 93 °F (at 4:53 PM)
Minimum temperature yesterday: 66 °F (at 5:53 AM)
Average temperature yesterday: 80 °F

Past Weeks' High & Low Weather Summary

 TemperatureHumidityPressure
High100 °F (Jul 17, 4:53 PM)81% (Jul 15, 3:53 AM)30.10 "Hg (Jul 15, 3:53 AM)
Low59 °F (Jul 23, 5:53 AM)13% (Jul 25, 4:53 PM)29.66 "Hg (Jul 17, 7:53 PM)
Average80 °F42%29.88 "Hg
* Reported Jul 13 4:53 AM — Jul 28 4:53 AM, Chico, Weather by CustomWeather, © 2015

Note: Actual official high and low records may vary slightly from our data, if they occured in-between our weather recording intervals... More about our weather records

Advertising

Chico weather history for previous 24 hours

 ConditionsComfort  
Time TempWeatherWind HumidityBarometerVisibility
4:53 AM
Tue, Jul 28
73 °FClear.7 mph27%29.85 "Hg10 mi
3:53 AM73 °FClear.7 mph28%29.85 "Hg10 mi
2:53 AM71 °FClear.3 mph36%29.85 "Hg10 mi
1:53 AM72 °FClear.5 mph35%29.85 "Hg10 mi
12:53 AM74 °FClear.5 mph33%29.85 "Hg10 mi
11:53 PM
Mon, Jul 27
75 °FClear.6 mph31%29.84 "Hg10 mi
10:53 PM79 °FClear.3 mph27%29.85 "Hg10 mi
9:53 PM80 °FClear.No wind30%29.85 "Hg10 mi
8:53 PM84 °FSunny.No wind26%29.84 "Hg10 mi
7:53 PM88 °FSunny.6 mph22%29.83 "Hg10 mi
6:53 PM92 °FSunny.6 mph14%29.83 "Hg10 mi
5:53 PM93 °FSunny.12 mph16%29.84 "Hg10 mi
4:53 PM93 °FSunny.12 mph16%29.85 "Hg10 mi
3:53 PM92 °FSunny.12 mph17%29.87 "Hg10 mi
2:53 PM91 °FSunny.10 mph22%29.88 "Hg10 mi
1:53 PM89 °FSunny.12 mph27%29.90 "Hg10 mi
12:53 PM87 °FSunny.10 mph31%29.92 "Hg10 mi
11:53 AM85 °FSunny.12 mph36%29.93 "Hg10 mi
10:53 AM83 °FSunny.12 mph37%29.94 "Hg10 mi
9:53 AM80 °FSunny.12 mph36%29.95 "Hg10 mi
8:53 AM75 °FSunny.5 mph47%29.95 "Hg10 mi
7:53 AM73 °FSunny.3 mph50%29.94 "Hg10 mi
6:53 AM67 °FClear.No wind63%29.93 "Hg10 mi
Weather by CustomWeather, © 2015

See weather overviewHow to use our weather pages